Location: St. Louis
(38.6270°N, 90.1994°W)
Time: 15:06:49
(UTC-06:00)

SO-50 - Visible Passes

Search period start: 21 January 2022 00:00
Search period end: 31 January 2022 00:00
Orbit: 595 x 689 km, 64.6° (Epoch: 21 January)

Date Brightness Start Highest point End Pass type
(mag) Time Alt. Az. Time Alt. Az. Time Alt. Az.
21 Jan ? 04:58:48 34° S 04:58:48 34° S 05:01:40 10° SSE visible
21 Jan ? 19:04:22 10° SSW 19:08:36 64° SE 19:08:36 64° SE visible
22 Jan ? 05:23:57 16° SSW 05:23:57 16° SSW 05:25:14 10° SSW visible
22 Jan ? 17:50:50 10° SSE 17:53:36 16° ESE 17:55:59 11° ENE visible
22 Jan ? 19:29:10 10° SW 19:33:33 50° NW 19:33:40 50° NW visible
23 Jan ? 18:13:47 10° S 18:18:00 41° ESE 18:20:58 18° NE visible
23 Jan ? 19:54:57 10° W 19:58:35 23° NW 19:58:38 23° NW visible
24 Jan ? 18:38:08 10° SW 18:42:38 77° WNW 18:45:51 20° NNE visible
24 Jan ? 20:22:18 10° WNW 20:23:30 11° NW 20:23:30 11° NW visible
25 Jan ? 19:03:27 10° WSW 19:07:31 32° NW 19:10:37 16° N visible
26 Jan ? 17:47:18 10° SSW 17:51:46 70° ESE 17:56:23 10° NE visible
26 Jan ? 19:29:53 10° W 19:32:42 16° NW 19:35:18 11° N visible
27 Jan ? 18:12:10 10° SW 18:16:31 47° NW 18:21:03 10° NNE visible
28 Jan ? 18:38:02 10° W 18:41:34 22° NW 18:45:12 10° N visible
29 Jan ? 19:05:36 10° NW 19:06:54 11° NW 19:08:12 10° NNW visible
30 Jan ? 17:46:28 10° WSW 17:50:30 30° NW 17:54:39 10° NNE visible
